Location: Elmsmere
(40.9284°N, 73.8207°W)
Time: 05:32:36
(UTC+00:00)

Cosmos 1745 Rocket - Pass Details

Date: 29 October 2020
Orbit: 953 x 997 km, 83.0° (Epoch: 29 November)

Event Time Altitude Azimuth Distance (km) Brightness Sun altitude
Rises 23:22:42 0° 353° (N) 3,697 7.1 -17.2°
Reaches altitude 10° 23:25:13 10° 354° (N) 2,750 6.4 -17.7°
Maximum altitude 23:31:33 85° 83° (E) 1,001 3.9 -18.9°
Drops below altitude 10° 23:37:54 10° 172° (S) 2,753 6.3 -20.1°
Sets 23:40:25 0° 173° (S) 3,700 7.0 -20.6°
